STARLINK-32813, 62869

Orbit data source: Space-Track

STARLINK-32813, 62869 is a payload satellite owned by SpaceX/Seattle (US) in LEO that was launched on Sat, 01 Feb 2025 UTC via an FALCON 9 launch vehicle from the Air Force Western Test Range (AFWTR). Payload-class satellites include a variety of spacecraft equipped with specific instruments for various scientific and technological missions. These include communications satellites like Starlink; space stations such as the ISS; scientific satellites like the Hubble; Earth observation satellites from companies like Planet Labs, Umbra, and HawkEye 360; GPS; miniature CubeSats for education and research; and military/defense satellites.

Loading next visibility...
Identifier
62869, 2025-022R
Orbit
LEO
Country
Flag of USUS
Related business
Manufacturer
SpaceX/Seattle
Mission
Operational Commercial Communications
Bus & Motor
STARLINK V2M, Unknown motor
Mass
730 kg wet, ~700 kg dry
Launch date (UTC)
2025-02-01 (1 year ago)
Launch vehicle
FALCON 9
Launch site
Air Force Western Test Range (AFWTR)
Object type
Payload
Rocket body
Debris
Shape & HBR
Box + 2 Pan, 17.7 m
Radar Cross Section
33.884 m², Large (>1 m²)

Expand to show TLE details & history
Last TLE update: 12 hours ago

TLE from 12 hours ago
0 STARLINK-32813
1 62869U 25022R   26126.66573808  .00017297  00000-0  59468-3 0  9993
2 62869  53.1593 220.5277 0001471 102.6988 257.4178 15.30204281 70772
Epoch: 2026-05-06T15:58Z
TLE epoch observation values (Epoch: 2026-05-06T15:58:39.770Z)
Latitude
0.00006°
Longitude
116.33907°
Altitude
476.322 km
Speed
7.629 km/s
True Right ascension
14h 42m 06s
True Declination
0° 00' 00"
Sunlit
Object was in full shadow at epoch
Visualization orbit readout
Latitude
Unknown
Longitude
Unknown
Altitude
Unknown
Speed
Unknown
Apparent Right ascension
Unknown
Apparent Declination
Unknown
Sunlit
N/A
Visualization observer readout
Local Sidereal Time
11:51:46
Azimuth
Unknown
Elevation
Unknown
Doppler factor
Unknown
Orbital elements
Apogee altitude
476.467 km
Perigee altitude
474.451 km
Semi-major axis
6,853.596 km
Eccentricity
0.00015
Inclination
53.1593°
RAAN
220.5277°
Arg. of periapsis
102.6988°
True anomaly
257.40135°
Mean anomaly
257.4178°
Eccentric anomaly
257.40957°
Mean motion
3.8253 °/min
Orbital period
94.11 mins
BSTAR
0.00059468
Loading maneuver chart data...
Computing Atmospheric mass density...
Loading historical data...
Loading historical data...
Loading historical data...
Loading historical data...
Loading historical data...
Loading historical data...
Loading historical data...

Documentation

Showing up to 5 results
|